Flag Weather past 2 weeks in Westerstede, Lower Saxony, Germany

Now
30 °F

Chilly.


Feels Like: 25 °F
Forecast: 33 / 42 °F
Wind: 5 mph from East

Location: Wittmundhaven

Current Time: Nov 21, 2014 at 4:01:07 AM

Latest Report: Nov 21, 2014 at 3:20 AM


Visibility: 0 mi

Pressure: 30.33 "Hg

Humidity: 100%

Dew point: 30 °F

Location of WesterstedeLocation

Historic Weather in Westerstede — Graph

°F

Westerstede temperature yesterday

Maximum temperature yesterday: 48 °F (at 12:20 PM)
Minimum temperature yesterday: 32 °F (at 10:20 PM)
Average temperature yesterday: 43 °F

Past Weeks' High & Low Weather Summary

 TemperatureHumidityPressure
High54 °F (Nov 8, 1:20 PM)100% (Nov 6, 2:20 AM)30.39 "Hg (Nov 6, 2:20 AM)
Low32 °F (Nov 20, 10:20 PM)50% (Nov 11, 1:20 PM)29.53 "Hg (Nov 16, 12:20 PM)
Average46 °F90%29.82 "Hg
* Reported Nov 6 2:20 AM — Nov 21 2:20 AM, Westerstede, Weather by CustomWeather, © 2014

Note: Actual official high and low records may vary slightly from our data, if they occured in-between our weather recording intervals... More about our weather records

Advertising

Westerstede weather history for previous 24 hours

 ConditionsComfort  
Time TempWeatherWind HumidityBarometerVisibility
2:20 AM
Nov 21
32 °FChilly.3 mph93%30.36 "Hg0 mi
1:20 AM32 °FChilly.2 mph100%30.36 "Hg0 mi
12:20 AM32 °FChilly.5 mph93%30.36 "Hg0 mi
11:20 PM
Nov 20
32 °FChilly.3 mph100%30.36 "Hg0 mi
10:20 PM32 °FChilly.3 mph100%30.36 "Hg1 mi
8:20 PM37 °FFog.2 mph100%30.36 "Hg4 mi
7:20 PM39 °FPassing clouds.1 mph93%30.36 "HgN/A
6:20 PM39 °FPassing clouds.6 mph93%30.36 "Hg6 mi
5:20 PM41 °FPassing clouds.5 mph93%30.36 "Hg5 mi
4:20 PM43 °FScattered clouds.2 mph87%30.36 "Hg5 mi
3:20 PM46 °FPassing clouds.5 mph76%30.36 "HgN/A
2:20 PM48 °FScattered clouds.3 mph71%30.36 "HgN/A
1:20 PM48 °FScattered clouds.3 mph76%30.36 "HgN/A
12:20 PM48 °FScattered clouds.5 mph71%30.39 "HgN/A
11:20 AM46 °FScattered clouds.5 mph87%30.39 "Hg5 mi
10:20 AM45 °FFog.6 mph93%30.39 "Hg3 mi
9:20 AM45 °FFog.3 mph93%30.36 "Hg3 mi
8:20 AM45 °FFog.3 mph93%30.36 "Hg2 mi
7:20 AM45 °FFog.2 mph93%30.36 "Hg2 mi
6:20 AM45 °FFog.3 mph93%30.36 "Hg3 mi
5:20 AM45 °FFog.1 mph93%30.33 "Hg3 mi
4:20 AM45 °FQuite cool.5 mph93%30.33 "Hg2 mi
Weather by CustomWeather, © 2014

See weather overviewHow to use our weather pages